FW9002 Weather Reports


time (UTC)temp
C
wind
direction
speed
KPH
gust
KPH
rain 1hr
cm
rain 24hr
cm
rain mn
cm
humidity
%
barometer
mb
20260901141219 23 88 1.6 1.6 0.00 0.00 0.00 79 1016.4
20260901140718 23 98 3.2 3.2 0.00 0.00 0.00 79 1016.3
20260901140216 22 106 1.6 1.6 0.00 0.00 0.00 81 1016.3
20260901135712 22 102 3.2 3.2 0.00 0.00 0.00 82 1016.3
20260901135206 22 82 3.2 3.2 0.00 0.00 0.00 82 1016.6
20260901134702 21 90 1.6 1.6 0.00 0.00 0.00 84 1016.2
20260901134157 21 76 1.6 1.6 0.00 0.00 0.00 86 1016.8
20260901133656 21 94 1.6 1.6 0.00 0.00 0.00 88 1016.3
20260901133155 20 112 1.6 1.6 0.00 0.00 0.00 90 1016.3
20260901132654 20 114 1.6 1.6 0.00 0.00 0.00 91 1016.1
20260901132149 20 114 0.0 0.0 0.00 0.00 0.00 92 1016.3
20260901131644 20 115 0.0 0.0 0.00 0.00 0.00 91 1016.2
20260901131138 20 115 0.0 0.0 0.00 0.00 0.00 91 1016.0
20260901130633 20 115 0.0 0.0 0.00 0.00 0.00 91 1016.0
20260901130132 20 114 0.0 0.0 0.00 0.00 0.00 91 1016.1
20260901125630 20 114 1.6 0.0 0.00 0.00 0.00 90 1015.6
20260901125125 20 115 0.0 0.0 0.00 0.00 0.00 90 1015.7
20260901124620 20 115 0.0 0.0 0.00 0.00 0.00 90 1015.9
20260901124114 20 115 0.0 0.0 0.00 0.00 0.00 89 1015.5
20260901123615 20 115 0.0 0.0 0.00 0.00 0.00 89 1015.3
20260901123114 20 115 0.0 0.0 0.00 0.00 0.00 88 1015.5
20260901122612 20 115 0.0 0.0 0.00 0.00 0.00 88 1015.4
20260901122107 20 115 0.0 0.0 0.00 0.00 0.00 88 1015.5
20260901121602 20 115 0.0 0.0 0.00 0.00 0.00 88 1015.5
20260901121057 21 115 0.0 0.0 0.00 0.00 0.00 88 1015.4
20260901120556 21 115 0.0 0.0 0.00 0.00 0.00 87 1015.5
20260901120052 20 116 1.6 1.6 0.00 0.00 0.00 88 1015.4
20260901115547 20 110 1.6 3.2 0.00 0.00 0.00 89 1015.4
20260901115044 20 95 1.6 1.6 0.00 0.00 0.00 90 1015.3
20260901114540 20 95 1.6 1.6 0.00 0.00 0.00 90 1015.2
20260901114039 20 94 0.0 0.0 0.00 0.00 0.00 90 1015.3
20260901113538 20 94 1.6 1.6 0.00 0.00 0.00 91 1015.3
20260901113033 20 94 0.0 0.0 0.00 0.00 0.00 91 1015.2
20260901112527 20 93 0.0 0.0 0.00 0.00 0.00 91 1015.6
20260901112023 20 93 0.0 0.0 0.00 0.00 0.00 90 1015.3
20260901111521 20 93 0.0 0.0 0.00 0.00 0.00 90 1015.3
20260901111020 20 93 0.0 0.0 0.00 0.00 0.00 91 1015.3
20260901110516 20 93 0.0 0.0 0.00 0.00 0.00 91 1015.5
20260901110011 20 93 0.0 0.0 0.00 0.00 0.00 91 1015.4
20260901105507 20 93 0.0 0.0 0.00 0.00 0.00 90 1015.3
20260901105007 20 93 0.0 0.0 0.00 0.00 0.00 90 1015.4
20260901104503 20 93 0.0 0.0 0.00 0.00 0.00 90 1015.5
20260901103957 20 93 0.0 0.0 0.00 0.00 0.00 90 1015.5
20260901103452 20 93 0.0 0.0 0.00 0.00 0.00 89 1015.4
20260901102948 20 93 0.0 0.0 0.00 0.00 0.00 89 1015.0
20260901102448 21 93 0.0 0.0 0.00 0.00 0.00 89 1015.0
20260901101942 21 93 0.0 0.0 0.00 0.00 0.00 89 1015.3
20260901101437 21 93 0.0 0.0 0.00 0.00 0.00 89 1015.4
20260901100932 21 93 0.0 0.0 0.00 0.00 0.00 89 1015.4
20260901100427 21 93 0.0 0.0 0.00 0.00 0.00 89 1014.9
20260901095926 21 93 0.0 0.0 0.00 0.00 0.00 88 1015.2
20260901095425 21 93 0.0 0.0 0.00 0.00 0.00 88 1014.9
20260901094917 21 93 0.0 0.0 0.00 0.00 0.00 89 1015.2
20260901094418 21 93 0.0 0.0 0.00 0.00 0.00 89 1015.2
20260901093912 21 93 1.6 1.6 0.00 0.00 0.00 88 1015.2
20260901093411 21 93 0.0 0.0 0.00 0.00 0.00 88 1015.2
20260901092907 21 93 0.0 0.0 0.00 0.00 0.00 87 1014.9
20260901092403 21 93 0.0 0.0 0.00 0.00 0.00 87 1014.8
20260901091859 21 93 0.0 0.0 0.00 0.00 0.00 87 1015.2
20260901091358 21 93 0.0 0.0 0.00 0.00 0.00 87 1014.9
20260901090853 21 93 0.0 0.0 0.00 0.00 0.00 88 1015.2
20260901090348 21 93 0.0 0.0 0.00 0.00 0.00 87 1015.2
20260901085844 21 93 1.6 1.6 0.00 0.00 0.00 87 1015.2
20260901085339 21 93 0.0 0.0 0.00 0.00 0.00 87 1015.2
20260901084836 21 93 0.0 0.0 0.00 0.00 0.00 85 1015.2
20260901084332 21 94 0.0 0.0 0.00 0.00 0.00 83 1015.4
20260901083827 21 93 0.0 1.6 0.00 0.00 0.00 83 1015.0
20260901083327 21 92 0.0 1.6 0.00 0.00 0.00 84 1015.3
20260901082825 21 92 0.0 0.0 0.00 0.00 0.00 86 1015.3
20260901082321 21 92 0.0 0.0 0.00 0.00 0.00 87 1015.3
20260901081816 21 92 0.0 0.0 0.00 0.00 0.00 86 1015.0
20260901081316 21 92 0.0 0.0 0.00 0.00 0.00 86 1015.3
20260901080811 21 92 0.0 0.0 0.00 0.00 0.00 87 1015.2
20260901080311 21 92 0.0 0.0 0.00 0.00 0.00 88 1015.3
20260901075804 21 92 0.0 0.0 0.00 0.00 0.00 87 1015.3
20260901075259 21 92 0.0 0.0 0.00 0.00 0.00 87 1015.4
20260901074754 21 92 0.0 0.0 0.00 0.00 0.00 86 1015.3
20260901074249 21 92 0.0 0.0 0.00 0.00 0.00 86 1015.2
20260901073745 21 92 0.0 0.0 0.00 0.00 0.00 86 1015.2
20260901073240 22 92 0.0 0.0 0.00 0.00 0.00 86 1015.5
20260901072735 22 92 0.0 0.0 0.00 0.00 0.00 85 1015.5
20260901072230 22 92 0.0 0.0 0.00 0.00 0.00 84 1015.5
20260901071730 22 92 0.0 0.0 0.00 0.00 0.00 84 1015.3
20260901071225 22 92 0.0 0.0 0.00 0.00 0.00 83 1015.4
20260901070724 22 92 0.0 0.0 0.00 0.00 0.00 84 1015.5
20260901070219 22 92 0.0 0.0 0.00 0.00 0.00 85 1015.4
20260901065719 22 92 0.0 0.0 0.00 3.73 3.73 84 1015.3
20260901065214 21 92 0.0 0.0 0.00 3.73 3.73 86 1015.3
20260901064710 21 92 0.0 0.0 0.00 3.73 3.73 85 1015.4
20260901064206 22 92 0.0 0.0 0.00 3.73 3.73 85 1015.6
20260901063703 22 92 0.0 0.0 0.00 3.73 3.73 84 1015.7
20260901063159 22 92 0.0 0.0 0.00 3.73 3.73 85 1015.4
20260901062654 22 92 0.0 0.0 0.00 3.73 3.73 85 1015.6
20260901062150 22 92 0.0 0.0 0.00 3.73 3.73 84 1015.6
20260901061646 22 92 0.0 0.0 0.00 3.73 3.73 84 1015.5
20260901061146 22 92 0.0 0.0 0.00 3.73 3.73 84 1015.6
20260901060641 22 92 0.0 0.0 0.00 3.73 3.73 85 1015.5
20260901060136 22 92 0.0 0.0 0.00 3.73 3.73 83 1015.5
20260901055631 22 92 0.0 0.0 0.00 3.73 3.73 82 1015.4
20260901055128 22 92 0.0 0.0 0.00 3.73 3.73 82 1015.5
20260901054625 22 92 0.0 0.0 0.00 3.73 3.73 82 1015.5
20260901054121 22 71 0.0 0.0 0.00 3.73 3.73 84 1015.4
20260901053616 22 71 0.0 0.0 0.00 3.73 3.73 83 1015.3
20260901053114 22 71 0.0 0.0 0.00 3.73 3.73 82 1015.4
20260901052612 22 71 0.0 0.0 0.00 3.73 3.73 82 1015.4
20260901052108 22 71 0.0 0.0 0.00 3.73 3.73 80 1015.3
20260901051607 22 71 0.0 0.0 0.00 3.73 3.73 79 1015.5
20260901051106 23 71 0.0 0.0 0.00 3.73 3.73 78 1015.6
20260901050601 23 71 0.0 0.0 0.00 3.73 3.73 78 1015.3
20260901050056 23 71 0.0 0.0 0.00 3.73 3.73 77 1015.3
20260901045551 23 70 0.0 0.0 0.00 3.73 3.73 77 1015.5
20260901045046 23 70 1.6 1.6 0.00 3.73 3.73 76 1015.5
20260901044542 23 70 0.0 0.0 0.00 3.73 3.73 76 1015.9
20260901044038 23 77 1.6 1.6 0.00 3.73 3.73 76 1015.6
20260901043533 23 87 1.6 1.6 0.00 3.73 3.73 77 1015.6
20260901043029 23 88 0.0 0.0 0.00 3.73 3.73 76 1015.5
20260901042528 23 88 1.6 1.6 0.00 3.73 3.73 76 1015.5
20260901042024 23 88 0.0 1.6 0.00 3.73 3.73 77 1015.6
20260901041519 23 115 0.0 0.0 0.00 3.73 3.73 76 1015.6
20260901041014 23 115 0.0 0.0 0.00 3.73 3.73 76 1015.7
20260901040508 23 115 0.0 0.0 0.00 3.73 3.73 75 1015.6
20260901040008 23 115 1.6 1.6 0.00 3.73 3.73 75 1015.6
20260901035506 23 115 0.0 1.6 0.00 3.73 3.73 75 1015.7
20260901035004 23 114 1.6 1.6 0.00 3.73 3.73 74 1015.3
20260901034504 23 116 1.6 3.2 0.00 3.73 3.73 75 1015.2
20260901033959 23 89 0.0 0.0 0.00 3.73 3.73 75 1015.5
20260901033458 24 89 0.0 0.0 0.00 3.73 3.73 73 1015.0
20260901032957 23 90 0.0 0.0 0.00 3.73 3.73 73 1015.5
20260901032452 23 90 0.0 0.0 0.00 3.73 3.73 73 1015.0
20260901031946 23 90 0.0 0.0 0.00 3.73 3.73 72 1015.2
20260901031442 23 90 0.0 0.0 0.00 3.73 3.73 74 1014.9
20260901030942 23 90 0.0 0.0 0.00 3.73 3.73 75 1015.0
20260901030438 24 90 0.0 0.0 0.00 3.73 3.73 74 1014.7
20260901025936 24 90 0.0 0.0 0.00 3.73 3.73 74 1014.7
20260901025432 24 90 1.6 1.6 0.00 3.73 3.73 73 1015.0
20260901024931 24 90 0.0 0.0 0.00 3.73 3.73 72 1014.6
20260901024426 24 90 1.6 1.6 0.00 3.73 3.73 72 1014.5
20260901023924 24 90 1.6 1.6 0.00 3.73 3.73 73 1014.3
20260901023419 24 93 1.6 1.6 0.00 3.73 3.73 74 1014.2
20260901022914 24 93 0.0 0.0 0.00 3.73 3.73 74 1014.3
20260901022410 24 93 0.0 0.0 0.00 3.73 3.73 73 1014.3
20260901021905 24 94 0.0 1.6 0.00 3.73 3.73 73 1014.1
20260901021401 24 80 1.6 1.6 0.00 3.73 3.73 73 1014.2
20260901020855 24 79 0.0 0.0 0.00 3.73 3.73 73 1014.0
20260901020351 24 79 0.0 0.0 0.00 3.73 3.73 70 1014.0
20260901015850 24 79 0.0 0.0 0.00 3.73 3.73 71 1013.8
20260901015347 25 79 0.0 0.0 0.00 3.73 3.73 68 1013.9
20260901014846 25 79 0.0 0.0 0.00 3.73 3.73 69 1013.9
20260901014342 25 79 0.0 0.0 0.00 3.73 3.73 70 1013.5
20260901013837 25 79 0.0 0.0 0.00 3.73 3.73 68 1013.4
20260901013333 25 79 0.0 0.0 0.00 3.73 3.73 69 1013.4
20260901012828 25 79 0.0 0.0 0.00 3.73 3.73 69 1013.3
20260901012323 25 79 0.0 0.0 0.00 3.73 3.73 67 1013.3
20260901011819 25 79 0.0 0.0 0.00 3.73 3.73 64 1013.2
20260901011314 25 79 0.0 0.0 0.00 3.73 3.73 66 1013.3
20260901010807 25 79 0.0 0.0 0.00 3.73 3.73 59 1013.3
20260901010302 25 79 0.0 0.0 0.00 3.73 3.73 62 1013.1
20260901005801 26 79 0.0 0.0 0.00 3.73 3.73 61 1013.2
20260901005257 26 79 0.0 0.0 0.00 3.73 3.73 61 1013.2
20260901004756 26 79 0.0 0.0 0.00 3.73 3.73 61 1013.3
20260901004251 26 79 0.0 0.0 0.00 3.73 3.73 61 1013.2
20260901003751 26 79 0.0 0.0 0.00 3.73 3.73 60 1013.1
20260901003245 26 79 0.0 0.0 0.00 3.73 3.73 61 1013.3
20260901002738 26 79 1.6 1.6 0.00 3.73 3.73 58 1013.2
20260901002234 26 87 0.0 0.0 0.00 3.73 3.73 58 1013.2
20260901001729 27 87 0.0 0.0 0.00 3.73 3.73 56 1013.3
20260901001224 27 87 0.0 0.0 0.00 3.73 3.73 54 1013.3
20260901000714 27 110 1.6 1.6 0.00 3.73 3.73 53 1013.2
20260901000211 27 164 1.6 1.6 0.00 3.73 3.73 51 1013.3
20260831235708 27 133 3.2 3.2 0.00 3.73 3.73 52 1013.2
20260831235204 27 182 3.2 3.2 0.00 3.73 3.73 53 1013.3
20260831234703 27 200 1.6 1.6 0.00 3.73 3.73 52 1013.6
20260831234158 27 178 3.2 3.2 0.00 3.73 3.73 54 1013.4
20260831233653 26 137 1.6 1.6 0.00 3.73 3.73 57 1013.5
20260831233149 27 98 1.6 1.6 0.00 3.73 3.73 58 1013.6
20260831232643 26 122 1.6 1.6 0.00 3.73 3.73 61 1013.6
20260831232140 26 145 1.6 1.6 0.00 3.73 3.73 64 1013.8
20260831231636 26 100 1.6 1.6 0.00 3.73 3.73 65 1013.5
20260831231132 26 80 1.6 1.6 0.00 3.73 3.73 66 1013.8
20260831230627 26 120 3.2 3.2 0.00 3.73 3.73 68 1013.9
20260831230122 26 145 4.8 8.0 0.00 3.73 3.73 68 1013.9
20260831225621 26 125 3.2 3.2 0.00 3.73 3.73 68 1013.8
20260831225116 25 134 1.6 3.2 0.00 3.73 3.73 69 1014.0
20260831224606 25 154 8.0 9.7 0.00 3.73 3.73 67 1014.0
20260831224101 25 121 4.8 4.8 0.00 3.73 3.73 68 1013.9
20260831223557 25 160 3.2 4.8 0.00 3.73 3.73 69 1014.3
20260831223052 25 108 4.8 4.8 0.00 3.73 3.73 71 1014.3
20260831222548 24 114 6.4 8.0 0.00 3.73 3.73 72 1014.4
20260831222049 24 107 4.8 4.8 0.00 3.73 3.73 71 1014.4
20260831221544 24 83 8.0 12.9 0.00 3.73 3.73 71 1014.3
20260831221039 24 106 4.8 8.0 0.00 3.73 3.73 72 1014.4
20260831220533 24 103 8.0 8.0 0.00 3.73 3.73 71 1014.6
20260831220029 24 122 3.2 4.8 0.00 3.73 3.73 74 1014.6
20260831215525 24 120 4.8 4.8 0.00 3.73 3.73 75 1014.8
20260831215020 23 95 3.2 3.2 0.00 3.73 3.73 78 1015.0
20260831214518 22 114 1.6 1.6 0.00 3.73 3.73 84 1014.9
20260831214013 22 108 6.4 9.7 0.00 3.73 3.73 85 1015.3
20260831213510 22 108 3.2 3.2 0.00 3.73 3.73 86 1015.4
20260831213005 22 105 4.8 8.0 0.00 3.73 3.73 88 1015.5
20260831212501 21 131 3.2 3.2 0.00 3.73 3.73 90 1015.5
20260831212000 21 135 4.8 8.0 0.00 3.73 3.73 89 1015.6
20260831211456 21 99 1.6 3.2 0.00 3.73 3.73 89 1015.9
20260831210954 21 116 1.6 3.2 0.13 3.73 3.73 90 1016.3
20260831210450 21 102 1.6 1.6 0.13 3.73 3.73 90 1015.8
20260831205946 20 119 3.2 3.2 0.18 3.71 3.71 91 1016.3
20260831205441 20 123 4.8 4.8 0.18 3.71 3.71 91 1016.6
20260831204937 20 99 3.2 4.8 0.13 3.68 3.68 91 1017.0
20260831204436 20 98 6.4 11.3 0.13 3.68 3.68 92 1016.9
20260831203935 20 104 3.2 3.2 0.00 3.66 3.66 93 1017.3
20260831203430 20 68 3.2 4.8 0.18 3.66 3.66 93 1017.3
20260831202928 20 102 3.2 3.2 0.36 3.66 3.66 93 1017.7
20260831202423 20 86 3.2 3.2 0.30 3.63 3.63 93 1017.8
20260831201918 20 100 1.6 1.6 0.30 3.61 3.61 93 1018.2
20260831201416 20 53 1.6 1.6 0.61 3.58 3.58 93 1018.6
20260831200913 20 89 1.6 3.2 0.61 3.53 3.53 93 1018.3
20260831200408 20 90 1.6 3.2 0.61 3.48 3.48 93 1018.3
20260831195907 20 111 3.2 3.2 0.48 3.43 3.43 92 1018.8
20260831195403 20 109 1.6 1.6 0.30 3.38 3.38 92 1018.8
20260831194859 20 112 1.6 3.2 0.30 3.35 3.35 92 1018.9
20260831194354 20 99 3.2 3.2 0.36 3.33 3.33 92 1019.0
20260831193853 20 114 1.6 1.6 0.18 3.30 3.30 92 1018.8
20260831193348 20 112 1.6 3.2 0.13 3.28 3.28 92 1019.0
20260831192843 20 126 1.6 1.6 0.30 3.28 3.28 92 1019.0
20260831192338 20 128 1.6 1.6 0.61 3.25 3.25 92 1018.9
20260831191834 20 129 0.0 0.0 1.37 3.23 3.23 92 1019.2
20260831191330 20 181 0.0 0.0 1.07 3.15 3.15 91 1018.9
20260831190826 20 208 1.6 1.6 0.13 3.00 3.00 92 1019.0
20260831190325 20 225 6.4 8.0 0.18 2.97 2.97 93 1019.3
20260831185825 20 31 0.0 1.6 0.61 2.97 2.97 93 1018.9
20260831185320 20 82 3.2 3.2 1.32 2.95 2.95 93 1018.4
20260831184819 20 50 4.8 4.8 1.98 2.87 2.87 93 1018.8
20260831184315 20 35 1.6 1.6 2.87 2.69 2.69 93 1019.2
20260831183810 20 304 4.8 3.2 4.37 2.51 2.51 92 1019.2
20260831183310 20 275 1.6 1.6 6.25 2.24 2.24 92 1019.1
20260831182809 20 282 4.8 8.0 4.27 1.70 1.70 90 1019.3
20260831182305 21 257 4.8 8.0 0.79 1.12 1.12 85 1019.1
20260831181759 21 277 17.7 24.1 0.00 0.99 0.99 82 1019.1
20260831181254 21 282 14.5 17.7 0.00 0.99 0.99 82 1018.5
20260831180749 21 279 8.0 11.3 0.00 0.99 0.99 82 1017.6
20260831180244 21 282 14.5 20.9 0.00 0.99 0.99 81 1017.6
20260831175743 21 286 4.8 8.0 0.00 0.99 0.99 81 1018.1
20260831175240 22 284 8.0 11.3 0.00 0.99 0.99 80 1018.2
20260831174735 22 287 16.1 25.7 0.00 0.99 0.99 78 1017.9
20260831174231 22 321 11.3 16.1 0.00 0.99 0.99 76 1018.1
20260831173729 22 341 8.0 12.9 0.00 0.99 0.99 76 1018.1
20260831173224 22 266 11.3 12.9 0.00 0.99 0.99 76 1018.1
20260831172719 23 306 8.0 11.3 0.00 0.99 0.99 75 1017.8
20260831172214 23 276 6.4 8.0 0.00 0.99 0.99 75 1017.7
20260831171708 23 51 12.9 20.9 0.00 0.99 0.99 73 1017.9
20260831171206 23 310 6.4 8.0 0.00 0.99 0.99 74 1017.8
20260831170702 25 298 8.0 14.5 0.00 0.99 0.99 69 1017.7
20260831170158 25 303 4.8 4.8 0.00 0.99 0.99 64 1017.5
20260831165654 25 305 3.2 4.8 0.00 0.99 0.99 66 1017.6
20260831165150 25 316 3.2 4.8 0.00 0.99 0.99 69 1017.4
20260831164646 25 300 11.3 12.9 0.00 0.99 0.99 70 1017.1
20260831164142 25 285 8.0 9.7 0.00 0.99 0.99 70 1017.4
20260831163637 25 293 6.4 8.0 0.00 0.99 0.99 70 1017.0
20260831163133 25 288 4.8 4.8 0.00 0.99 0.99 70 1017.0
20260831162632 25 299 6.4 11.3 0.00 0.99 0.99 69 1016.9
20260831162130 26 293 8.0 11.3 0.00 0.99 0.99 67 1016.3
20260831161626 26 330 6.4 9.7 0.00 0.99 0.99 62 1016.3
20260831161122 27 253 3.2 3.2 0.00 0.99 0.99 61 1016.4
20260831160621 27 227 3.2 3.2 0.00 0.99 0.99 59 1016.2
20260831160117 27 106 1.6 3.2 0.00 0.99 0.99 56 1015.9
20260831155611 26 152 3.2 3.2 0.00 0.99 0.99 61 1016.0
20260831155106 26 156 3.2 4.8 0.00 0.99 0.99 61 1015.9
20260831154602 26 129 1.6 1.6 0.00 0.99 0.99 65 1015.9
20260831154102 26 150 3.2 3.2 0.00 0.99 0.99 66 1015.7
20260831153601 25 182 1.6 1.6 0.00 0.99 0.99 68 1015.9
20260831153058 25 197 8.0 9.7 0.00 0.99 0.99 69 1016.0
20260831152553 25 220 8.0 9.7 0.00 0.99 0.99 69 1016.1
20260831152049 25 228 8.0 9.7 0.00 0.99 0.99 72 1016.2
20260831151548 25 131 4.8 4.8 0.00 0.99 0.99 75 1016.1
20260831151043 24 151 3.2 4.8 0.00 0.99 0.99 76 1016.1
20260831150538 24 188 4.8 8.0 0.00 0.99 0.99 76 1016.1
20260831150034 24 153 1.6 3.2 0.00 0.99 0.99 77 1015.9
20260831145528 23 176 3.2 4.8 0.00 0.99 0.99 78 1015.7
20260831145025 23 181 4.8 8.0 0.00 0.99 0.99 78 1015.5
20260831144520 23 144 3.2 3.2 0.00 0.99 0.99 79 1015.6
20260831144015 23 143 4.8 8.0 0.00 0.99 0.99 80 1015.3
20260831143509 23 202 3.2 4.8 0.00 0.99 0.99 83 1015.6
20260831143005 22 134 3.2 3.2 0.00 0.99 0.99 85 1015.3
20260831142502 22 177 0.0 0.0 0.00 0.99 0.99 87 1015.2
20260831141956 22 147 0.0 0.0 0.00 0.99 0.99 88 1015.4
20260831141449 22 162 4.8 8.0 0.00 0.99 0.99 87 1015.3